Regional Weather Roundup
Issued by NWS Wakefield, VA

Home | Current Version | Previous Version | Graphics & Text | Print | Product List | Glossary On
Versions: 1 2 3 4 5 6 7 8 9 10 11 12 13 14 15 16 17 18 19 20 21 22 23 24 25 26 27 28 29 30 31 32 33 34 35 36 37 38 39 40 41 42 43 44 45 46 47 48 49 50
000
ASUS41 KAKQ 071015
RWRAKQ

REGIONAL WEATHER ROUNDUP
NATIONAL WEATHER SERVICE WAKEFIELD VA
600 AM EDT TUE JUL 07 2015

Note: "fair" indicates few or no clouds below 12,000 feet with no
significant weather and/or obstructions to visibility. * = Denotes
station may not report precipitation (e.g., rain,snow,etc.),
thunder or fog.

VAZ042-051-052>054-056-071100-
NORTHERN VIRGINIA

CITY           SKY/WX    TMP DP  RH WIND       PRES   REMARKS
WASH NATIONAL  PTCLDY    75  72  88 CALM      30.04R
DULLES         FOG       71  70  96 S3        30.04R VSB 1/8
FORT BELVOIR   CLEAR     70  69  96 CALM      30.03S
QUANTICO       NOT AVBL
FREDERICKSBRG* CLEAR     72  72 100 S3        30.04R
STAFFORD*      FOG       66  65  97 CALM      30.08R VSB 1/4
WARRENTON      FOG       72  72 100 CALM      30.04R VSB 1/4
CULPEPER*      CLOUDY    70  70 100 CALM      30.06R FOG
MANASSAS*      CLOUDY    72  72 100 SW5         N/A
LEESBURG*      CLOUDY    72  72 100 SW3       30.05R
WINCHESTER     MOCLDY    72  70  94 SW6       30.06R
FRONT ROYAL*   PTSUNNY   68  68 100 SW5       30.05R
LURAY*         FAIR      68  68 100 CALM      30.08R FOG
$$

VAZ048-049-060>072-079>083-071100-
CENTRAL AND SOUTH CENTRAL VIRGINIA

CITY           SKY/WX    TMP DP  RH WIND       PRES   REMARKS
RICHMOND       PTCLDY    71  68  90 S5        30.06R
CHESTERFIELD*  NOT AVBL
PETERSBURG*    CLEAR     70  70 100 S3        30.08R FOG
HANOVER        CLEAR     71  70  96 S5        30.07R
TAPPAHANNOCK*  CLEAR     72  69  91 CALM      30.06R FOG
QUINTON*       NOT AVBL
CHARLOTTSVILLE PTCLDY    70  67  90 CALM      30.06R
GORDONSVILLE*  CLOUDY    68  68 100 SW3       30.06R FOG
ORANGE*        CLOUDY    70  70 100 S3        30.07R FOG
LOUISA*        CLEAR     68  66  94 CALM      30.05R
BUMPASS*       FAIR      67  67  98 MISG      30.05S
FARMVILLE*     CLEAR     68  68 100 CALM      30.07R FOG
CREWE*           N/A     67  65  96 CALM      30.07R
FORT PICKETT*  FAIR      67  66  98 SW5       30.08R
CHASE CITY*    FAIR      69  69 100 CALM      30.09R
CLARKSVILLE*   FAIR      64  64 100 CALM      30.09R
SOUTH HILL*    CLEAR     68  67  97 CALM      30.14S
LAWRENCEVILLE* NOT AVBL
EMPORIA*         N/A     70  70 100 CALM      30.10S
$$

VAZ088>098-071100-
SOUTHEAST VIRGINIA

CITY           SKY/WX    TMP DP  RH WIND       PRES   REMARKS
NORFOLK        CLEAR     74  70  87 SW12      30.08R
VIRGINIA BEACH PTCLDY    77  71  82 SW10      30.07S
NORFOLK NAVAL  PTCLDY    74  71  91 SW8       30.09R
WEST POINT*    CLEAR     76  73  88 CALM      30.08R
SALUDA*        FAIR      73  72  94 SW3       30.05S
NEWPORT NEWS   CLEAR     75  72  90 SW7       30.07S
LANGLEY AFB    CLEAR     75  72  91 SW10      30.06R
FORT EUSTIS    CLEAR     75  75 100 S5        30.06R
WILLIAMSBURG*  CLEAR     75  73  94 SW5       30.08R
HR EXEC AP*    FAIR      73  70  88 SW5       30.11R
FRANKLIN*      CLEAR     71  71  98 S6        30.09R
WAKEFIELD      CLEAR     73  71  93 S3        30.08R
$$

VAZ020-022-025-037-045-071100-
WEST CENTRAL AND SOUTHWEST VIRGINIA

CITY           SKY/WX    TMP DP  RH WIND       PRES   REMARKS
STAUNTON*      CLEAR     68  66  93 S3        30.12R
WAYNESBORO*    FAIR      64  64  99 CALM      30.11R
HOT SPRINGS VA FOG       63  63 100 W13       30.21R VSB 3/4
LYNCHBURG      CLEAR     64  64 100 S5        30.12R FOG
DANVILLE       CLEAR     66  64  93 CALM      30.10R
SOUTH BOSTON*  FAIR      65  64  96 MISG      30.09R
MARTINSVILLE   CLOUDY    64  64 100 CALM      30.15R FOG
ROANOKE        CLEAR     67  65  93 CALM      30.14R
BLACKSBURG     FOG       61  61 100 CALM      30.21R VSB 3/4
DUBLIN*        CLEAR     61  61 100 CALM      30.19R FOG
MARION*        PTCLDY    61  60  96 CALM      30.22R FOG
HILLSVILLE*    CLEAR     60  60  99 S5        30.19R FOG
RICHLANDS*     FAIR      64  64  97 CALM      30.19S
WISE*          MOCLDY    64  64 100 SW3       30.21R FOG
ABINGDON*      CLOUDY    64  64 100 CALM      30.18R FOG
$$

MDZ021>025-VAZ099-100-071100-
SOUTHERN MARYLAND AND THE DELMARVA PENINSULA

CITY           SKY/WX    TMP DP  RH WIND       PRES   REMARKS
PATUXENT RIVER PTCLDY    74  71  91 SW7       30.03R
BAY BRIDGE APT   N/A     73  73 100 SW3       30.03S
LEONARDTOWN    CLEAR     72  70  94 S3        30.05S
DOVER          CLEAR     74  74 100 S6        30.02S
GEORGETOWN     CLEAR     74  73  97 SW5       30.05S
EASTON         CLEAR     73  73 100 CALM      30.07R
CAMBRIDGE      CLEAR     73  70  88 CALM      30.03R
SALISBURY      CLEAR     73  73 100 CALM      30.05R
OCEAN CITY     CLEAR     76  75  97 SW6       30.05S FOG
WALLOPS ISLAND CLEAR     75  74  96 SW8       30.06R
ACCOMACK*      CLEAR     73  73 100 SW5       30.06R
$$

NCZ012>017-030>032-071100-
NORTH CENTRAL AND EASTERN NORTH CAROLINA

CITY           SKY/WX    TMP DP  RH WIND       PRES   REMARKS
ROANOKE RAPIDS FAIR      70  70 100 CALM      30.09R
RALEIGH        PTCLDY    72  69  90 S3        30.10R
ELIZABETH CITY CLEAR     76  73  91 S10       30.10R
AHOSKIE*       CLEAR     70  68  95 CALM      30.10R
EDENTON*       PTCLDY    75  72  89 SW9       30.11R
CURRITUCK*     CLEAR     76  72  88 S3        30.10S
KILL DEVIL HLS CLEAR     76  73  91 SW6       30.10S
MANTEO         CLEAR     76  74  93 SW8       30.12R
CAPE HATTERAS  CLEAR     76  75  97 SW7       30.13R
TARBORO*         N/A     72  69  92 CALM      30.11R
GOLDSBORO      CLEAR     72  71  98 CALM      30.09R
WASHINGTON     CLEAR     73  72  95 CALM      30.12R
GREENVILLE     PTCLDY    73  72  94 S6        30.12S
NEW BERN       CLEAR     75  72  90 S5        30.13R
WILMINGTON     CLEAR     75  72  90 CALM      30.12R
$$

VAZ048-071100-
ELSEWHERE

CITY           SKY/WX    TMP DP  RH WIND       PRES   REMARKS
HARRISBURG PA  CLOUDY    73  70  90 CALM      30.01R
BALTIMORE      PTCLDY    70  69  97 W3        30.02S FOG
ANNAPOLIS      MOCLDY    74  71  91 W3        30.03R
ANDREWS AFB    CLEAR     72  72 100 SW5       30.03R
PHILADELPHIA   CLOUDY    76  72  87 S3        30.04R
HENDERSON NC   CLEAR     67  64  89 SW3       30.09S
GREENSBORO     PTCLDY    71  67  87 CALM      30.11R
ROCKY MOUNT    PTCLDY    72  70  93 S5        30.10R
$$

VAZ100-071100-
MARINE

STATION/POSITION TIME  TEMP    WIND        PRES    WAVE   SWELL
                       AIR SEA DIR/SP/G            HT/PER HT/PER
                 (UTC) (F)     (DEG/KT/KT) (MB)    (FT/S) (FT/S)
BRANDYWINE LGT   0900   75 74  190/  9/ 10 1017.2R
CAPE MAY NJ      0900   74 78  160/  5/  6 1016.9S
LEWES DE         0900   76 74  200/  3/  5 1017.0R
15NM E FENWICK I 0950   76 75              1017.3S   3/ 5
OCEAN-CITY-INLET 0900   75 74  200/  8/ 10 1017.2R
WACHAPREAGUE VA  0900   77 81  230/  6/  9 1017.8R
THOMAS POINT MD  1000   75 77  230/  8/  8 1017.3R
GOOSES REEF MD   1000   76 78  230/ 12/ 14 1017.7R
COVE POINT MD    0900   75     250/ 10/ 15 1017.3R
SOLOMONS ISLAND  0900      80                N/A
BISHOPS HEAD MD  0900   79     210/ 14/ 16 1016.7R
PINEY POINT MD   0900          220/ 12/ 13   N/A
CAMBRIDGE MD     0900   74 80  180/  2/  3 1016.5R
LEWISETTA VA     0900   75 82  230/ 10/ 12 1016.7R
RAPPAHANNOCK LGT 0900          200/ 16/ 18 1018.0R
STINGRAY PT      1000   78 81  230/ 12/ 14 1017.7R   1/ 2
YORK RVR RNG VA  0900   77     230/ 13/ 14 1017.1R
YORKTOWN VA      0900   75 80  230/  7/ 10 1017.5R
JAMESTOWN VA     1000   74 82  210/  4/  6   N/A
DOMINION TERM VA 0900   76     220/ 13/ 14 1017.7R
KIPTOPEKE VA     0900      83  210/ 10/ 13   N/A
CHES BAY BRIDGE  0900   76 75  190/ 12/ 14 1017.6R
CAPE HENRY VA    0900   75     200/  8/ 10   N/A
CHESAPEAKE LGHT  0900   77     210/ 15/ 16 1018.9R
WILLOUBY STN VA  0900   76     220/ 11/ 13 1018.8R
CAPE HENRY BUOY  0928      78                N/A     3/ 9   2/14
1ST LANDING BUOY 1000      75              1018.1R   1/ 4
CAPE CHARLES BUO 0926      77                N/A     2/14   2/14
OFFSHORE WE BUOY 0911      77                N/A     3/ 9   2/ 9
64NM E OF VA BCH 0950   78 77  220/ 14/ 16 1018.9R   3/ 8   2/ 8
DUCK PIER NC     0900   78 74  230/ 12/ 17   N/A
44100 DUCK FRF   0924      77                N/A     3/ 9   2/11
44056 DUCK FRF   0911      75                N/A     2/ 9   2/11
OREGON INLET NC  0900   79 82  230/ 13/ 16 1019.6R
HATTERAS NC      0900   78 80  220/  5/  6 1019.5R
DIAMOND SHLS NC  0950   79 82  190/ 14/ 19 1020.0R   3/ 8   2/ 8
CAPE LOOKOUT NC  1000   79     220/  7/ 10 1020.0R
$$


USA.gov is the U.S. government's official web portal to all federal, state and local government web resources and services.